Weather History for Bloomington, IN

Change the Weather History Date:

Wednesday, February 14, 2007

  Actual Average Record
Temperature  
Mean Temperature 16 °F 33 °F  
Max Temperature 21 °F 43 °F 57 °F (2001)
Min Temperature 12 °F 23 °F 12 °F (2007)
Degree Days  
Heating Degree Days 48 32  
Month to date heating degree days 471  
Since 1 July heating degree days 3646  
Cooling Degree Days 0 0  
Month to date cooling degree days 0  
Year to date cooling degree days 0  
Moisture  
Dew Point 9 °F    
Average Humidity 73    
Maximum Humidity 85    
Minimum Humidity 57    
Precipitation  
Precipitation 0.06 in 0.11 in 0.68 in (2005)
Month to date precipitation 1.51  
Year to date precipitation 4.82  
Sea Level Pressure  
Sea Level Pressure 30.11 in    
Wind  
Wind Speed 2 mph (NNW)    
Max Wind Speed 15 mph    
Max Gust Speed -    
Visibility 8 miles    
Events Snow    
T = Trace of Precipitation, MM = Missing Value Source: NWS Daily Summary

Daily Weather History Graph

Daily Weather History Graph

Search for Another Location

Airport:

Trip Planner

Search our weather history database for the weather conditions in past years. The results will help you decide how hot, cold, wet, or windy it might be!

Date:

Astronomy

Feb. 14, 2007 Rise Set
Actual Time 7:39 AM EST 6:22 PM EST
Civil Twilight 7:12 AM EST 6:49 PM EST
Nautical Twilight 6:40 AM EST 7:21 PM EST
Astronomical Twilight 6:09 AM EST 7:52 PM EST
Moon 5:49 AM EST (2/14) 2:52 PM EST (2/14)
Length of Visible Light 11h 37m
Length of Day
10h 42m
Waning Crescent, 11% of the Moon is Illuminated
Feb 14
Waning Crescent
Feb 17
New
Feb 24
First Quarter
Mar 3
Full
Mar 11
Last Quarter

Hourly Weather History & Observations

Time (EST) Temp. Windchill Dew Point Humidity Pressure Visibility Wind Dir Wind Speed Gust Speed Precip Events Conditions
12:08 AM 15.8 °F - 10.4 °F 79% 29.88 in 2.0 mi Calm Calm - N/A Snow Light Snow
12:23 AM 15.8 °F - 10.4 °F 79% 29.88 in 4.0 mi Calm Calm - N/A Snow Light Snow
12:53 AM 16.0 °F - 10.0 °F 77% 29.94 in 3.0 mi Calm Calm - N/A Snow Light Snow
1:35 AM 15.8 °F - 8.6 °F 73% 29.92 in 4.0 mi Calm Calm - N/A Snow Light Snow
1:43 AM 15.8 °F - 8.6 °F 73% 29.93 in 4.0 mi Calm Calm - N/A Snow Light Snow
1:53 AM 16.0 °F - 9.0 °F 74% 29.96 in 3.0 mi Calm Calm - N/A Snow Light Snow
2:51 AM 15.8 °F - 8.6 °F 73% 29.96 in 2.5 mi Calm Calm - N/A Snow Light Snow
2:53 AM 15.1 °F - 9.0 °F 77% 29.99 in 2.5 mi Calm Calm - N/A Snow Light Snow
3:28 AM 15.8 °F - 8.6 °F 73% 29.95 in 3.0 mi Calm Calm - N/A Snow Light Snow
3:53 AM 15.1 °F - 9.0 °F 77% 30.00 in 6.0 mi Calm Calm - N/A   Haze
4:53 AM 15.1 °F - 9.0 °F 77% 30.03 in 8.0 mi Calm Calm - N/A Snow Light Snow
5:39 AM 15.8 °F - 8.6 °F 73% 30.01 in 9.0 mi Calm Calm - N/A   Mostly Cloudy
5:53 AM 14.0 °F - 8.1 °F 77% 30.05 in 10.0 mi Calm Calm - N/A   Mostly Cloudy
6:20 AM 14.0 °F - 8.6 °F 79% 30.03 in 10.0 mi Calm Calm - N/A   Partly Cloudy
6:53 AM 14.0 °F - 8.1 °F 77% 30.08 in 10.0 mi Calm Calm - N/A   Scattered Clouds
7:07 AM 14.0 °F - 6.8 °F 73% 30.04 in 10.0 mi Calm Calm - N/A   Mostly Cloudy
7:17 AM 12.2 °F - 6.8 °F 79% 30.04 in 10.0 mi Calm Calm - N/A   Scattered Clouds
7:53 AM 12.9 °F - 7.0 °F 77% 30.11 in 10.0 mi Calm Calm - N/A   Clear
8:53 AM 14.0 °F - 8.1 °F 77% 30.15 in 10.0 mi Calm Calm - N/A   Clear
9:41 AM 15.8 °F - 8.6 °F 73% 30.13 in 10.0 mi Calm Calm - N/A   Mostly Cloudy
9:53 AM 16.0 °F - 8.1 °F 71% 30.17 in 10.0 mi Calm Calm - N/A   Mostly Cloudy
10:41 AM 17.6 °F - 8.6 °F 68% 30.15 in 10.0 mi North - - N/A   Overcast
10:53 AM 17.1 °F 5.0 °F 9.0 °F 71% 30.19 in 10.0 mi North 10.4 mph - N/A   Overcast
11:19 AM 17.6 °F 5.7 °F 8.6 °F 68% 30.16 in 10.0 mi North 10.4 mph - 0.04 in   Overcast
11:53 AM 19.0 °F 8.2 °F 10.9 °F 71% 30.22 in 10.0 mi North 9.2 mph - 0.05 in   Mostly Cloudy
12:53 PM 19.9 °F 7.9 °F 10.9 °F 68% 30.20 in 10.0 mi North 11.5 mph - 0.01 in   Mostly Cloudy
1:11 PM 19.4 °F 6.6 °F 10.4 °F 68% 30.16 in 10.0 mi North 12.7 mph - N/A   Partly Cloudy
1:28 PM 19.4 °F 5.5 °F 10.4 °F 68% 30.16 in 10.0 mi North 15.0 mph - N/A   Mostly Cloudy
1:35 PM 21.2 °F 9.5 °F 12.2 °F 68% 30.16 in 10.0 mi North 11.5 mph - N/A   Scattered Clouds
1:53 PM 21.0 °F 9.9 °F 12.0 °F 68% 30.19 in 10.0 mi North 10.4 mph - N/A   Clear
2:53 PM 21.9 °F 10.4 °F 10.9 °F 63% 30.20 in 10.0 mi North 11.5 mph - N/A   Scattered Clouds
3:53 PM 21.9 °F 9.2 °F 10.0 °F 60% 30.20 in 10.0 mi North 13.8 mph - N/A   Partly Cloudy
4:53 PM 21.0 °F 8.6 °F 8.1 °F 57% 30.22 in 10.0 mi North 12.7 mph - N/A   Clear
5:53 PM 19.0 °F 9.0 °F 7.0 °F 59% 30.23 in 10.0 mi North 8.1 mph - N/A   Clear
6:53 PM 15.1 °F - 6.1 °F 68% 30.24 in 10.0 mi Calm Calm - N/A   Clear
7:53 PM 15.1 °F - 7.0 °F 70% 30.25 in 10.0 mi Calm Calm - N/A   Clear
8:53 PM 12.9 °F - 7.0 °F 77% 30.25 in 10.0 mi Calm Calm - N/A   Clear
9:53 PM 12.9 °F - 7.0 °F 77% 30.25 in 10.0 mi Calm Calm - N/A   Clear
10:37 PM 12.2 °F 6.1 °F 8.6 °F 85% 30.22 in 10.0 mi WNW 3.5 mph - N/A   Mostly Cloudy
10:53 PM 14.0 °F 8.2 °F 8.1 °F 77% 30.26 in 10.0 mi NW 3.5 mph - N/A   Overcast
11:53 PM 14.0 °F 6.5 °F 8.1 °F 77% 30.27 in 5.0 mi WNW 4.6 mph - 0.00 in Snow Light Snow